Tracking 29594 objects as of 20-Sep-2024
HD Live streaming from Space Station
objects crossing your sky now

ASTROCAST-0402

Track ASTROCAST-0402 now!
10-day predictions
ASTROCAST-0402 is classified as:


NORAD ID: 55109
Int'l Code: 2023-001DE
Perigee: 528.5 km
Apogee: 534.1 km
Inclination: 97.6 °
Period: 95.1 minutes
Semi major axis: 6902 km
RCS: Unknown
Launch date: January 3, 2023
Source: (SWTZ)
Launch site: AIR FORCE EASTERN TEST RANGE (AFETR)

Uplink (MHz):
Downlink (MHz):
Beacon (MHz):
Mode:
Call sign:
Status: Unknown

Your satellite tracking list
Your tracking list is empty




NASA's NSSDC Master Catalog

Two Line Element Set (TLE):
1 55109U 23001DE  24264.17018064  .00008576  00000-0  47649-3 0  9990
2 55109  97.5994 342.1102 0004090 320.0540  40.0390 15.13946060 47951
Source of the keplerian elements: AFSPC